Weather in Zasure

Russia / Chuvash Republic     56°02′47″N   46°14′37″E
temp.,
°C
wind,
m/s
gust,
m/s
humid.,
%
clouds,
%
prec.,
mm/h
press.,
hPa
HPBL,
m
17 may, mon
mon1700:00+16sw229479 0.0 101518
03:00+15w119391 0.5 101611
06:00+18ne1188100 0.0 101655
09:00+22ene2268100 0.0 1016446
12:00+26ene215790 0.0 1016969
15:00+27e01525 0.0 10161277
18:00+26nne12675 0.0 101624
21:00+18e368741 1.1 101784
18 may, tue
tue1800:00+17ese229045 0.3 101727
03:00+16e389487 0.3 1017125
06:00+18ese3108611 0.0 1018287
09:00+23ese58657 0.0 1017512
12:00+26ese56585 0.0 10171037
15:00+27ese57545 0.0 10171130
18:00+24e511685 0.0 1016487
21:00+20ese513755 0.0 1017314
19 may, wed
wed1900:00+18ese514705 0.0 1017323
03:00+17ese615685 0.0 1017357
06:00+17ese513735 0.0 1017375
09:00+21ese6106133 0.0 1017642
12:00+24ese79521 0.0 10171003
15:00+24ese69530 0.0 10171048
18:00+22ese511630 0.0 1016600
21:00+18ese514720 0.0 1016358
20 may, thu
thu2000:00+17ese515740 0.0 1016390
03:00+15ese514790 0.0 1016323
06:00+16se614750 0.0 1016454
09:00+21ese711620 0.0 1015619
12:00+23se710530 0.0 10141636
15:00+24se711530 0.0 10131954
18:00+21se612580 0.0 10121074
21:00+16se4107387 0.0 1012250
21 may, fri
fri2100:00+14s238978 0.0 101159
03:00+12s229467 0.0 101244
06:00+14s2584100 0.1 1012242
09:00+18ssw4571100 0.1 10121064
12:00+20sw575849 0.3 10121681
15:00+21sw6954100 0.4 10121931
18:00+14s3128773 0.9 1013523
21:00+13s413925 0.9 1013415